Location: Northcutt
(34.7304°N, 84.4305°W)
Time: 12:56:54
(UTC+00:00)

SR - All Passes

Search period start: 05 October 2022 00:00
Search period end: 15 October 2022 00:00
Orbit: 574 x 879 km, 66.7° (Epoch: 04 October)

Date Brightness Start Highest point End Pass type
(mag) Time Alt. Az. Time Alt. Az. Time Alt. Az.
05 Oct - 01:34:58 10° SSW 01:40:49 90° WNW 01:46:46 10° NNE visible
05 Oct - 03:20:26 10° W 03:23:40 15° NW 03:26:54 10° NNW visible
05 Oct - 10:20:41 10° N 10:25:18 30° NE 10:29:33 10° ESE visible
05 Oct - 12:02:54 10° NW 12:07:11 27° WSW 12:11:09 10° SSW daylight
06 Oct - 00:45:13 10° S 00:50:43 45° ESE 00:56:19 10° NE visible
06 Oct - 02:28:03 10° WSW 02:32:57 27° NW 02:37:54 10° N visible
06 Oct - 09:31:30 10° N 09:34:38 16° NE 09:37:36 10° E visible
06 Oct - 11:12:07 10° NNW 11:17:14 64° WSW 11:21:52 10° SSE visible
06 Oct - 23:56:27 10° SSE 00:00:47 22° ESE 00:05:11 10° ENE visible
07 Oct - 01:36:47 10° SW 01:42:27 51° WNW 01:48:13 10° NNE visible
07 Oct - 10:21:54 10° NNW 10:27:02 57° ENE 10:31:42 10° SE visible
07 Oct - 12:06:06 10° WNW 12:08:20 13° WSW 12:10:30 10° SW daylight
08 Oct - 00:46:20 10° SSW 00:52:11 83° ESE 00:58:07 10° NNE visible
08 Oct - 02:31:24 10° W 02:34:56 16° NW 02:38:29 10° N visible
08 Oct - 09:32:08 10° N 09:36:35 27° NE 09:40:41 10° ESE visible
08 Oct - 11:14:09 10° NW 11:18:33 30° WSW 11:22:38 10° S visible
08 Oct - 23:56:41 10° S 00:02:06 41° ESE 00:07:35 10° NE visible
09 Oct - 01:39:11 10° WSW 01:44:15 29° NW 01:49:21 10° N visible
09 Oct - 08:43:08 10° NNE 08:45:52 14° NE 08:48:29 10° ENE visible
09 Oct - 10:23:26 10° NNW 10:28:34 71° WSW 10:33:13 10° SSE visible
09 Oct - 23:08:06 10° SSE 23:12:11 20° ESE 23:16:18 10° ENE daylight
10 Oct - 00:48:03 10° SW 00:53:47 56° WNW 00:59:35 10° NNE visible
10 Oct - 09:33:17 10° NNW 09:38:20 51° ENE 09:42:55 10° SE visible
10 Oct - 11:17:02 10° WNW 11:19:43 15° WSW 11:22:16 10° SW visible
10 Oct - 23:57:41 10° SSW 00:03:32 76° ESE 00:09:26 10° NNE visible
11 Oct - 01:42:22 10° W 01:46:12 17° NW 01:50:00 10° N visible
11 Oct - 08:43:35 10° N 08:47:50 25° NE 08:51:47 10° ESE visible
11 Oct - 10:25:22 10° NW 10:29:54 34° WSW 10:34:05 10° S visible
11 Oct - 23:08:09 10° S 23:13:27 37° ESE 23:18:49 10° NE daylight
12 Oct - 00:50:20 10° WSW 00:55:32 32° NW 01:00:45 10° N visible
12 Oct - 07:54:49 10° NNE 07:57:05 13° NE 07:59:17 10° ENE visible
12 Oct - 09:34:45 10° NNW 09:39:53 80° WSW 09:44:32 10° SSE visible
12 Oct - 22:19:46 10° SE 22:23:33 18° ESE 22:27:23 10° ENE daylight
12 Oct - 23:59:17 10° SW 00:05:06 61° WNW 00:10:56 10° NNE visible
13 Oct - 01:48:15 10° NW 01:48:18 10° NW 01:48:20 10° NW visible
13 Oct - 08:44:39 10° NNW 08:49:36 45° ENE 08:54:07 10° SE visible
13 Oct - 10:28:03 10° WNW 10:31:04 16° WSW 10:33:57 10° SW visible
13 Oct - 23:09:03 10° SSW 23:14:51 69° ESE 23:20:43 10° NNE daylight
14 Oct - 00:53:21 10° W 00:57:26 19° NW 01:01:30 10° N visible
14 Oct - 07:55:03 10° N 07:59:04 22° NE 08:02:49 10° ESE night (unlit)
14 Oct - 09:36:35 10° NW 09:41:14 38° WSW 09:45:29 10° S visible
14 Oct - 22:19:37 10° S 22:24:48 34° ESE 22:30:02 10° NE daylight
